Wind_Speed
8 9 9 9 10 10 10 10 11 10 11 11 12 12 12 12 12 12 12 13 13 13 13 13 12 12 13 13 13 13 13 13 14 15 15 15 16 16
9 10 10 10 10 10 11 11 11 11 11 11 11 12 12 12 12 13 13 13 14 14 14 13 13 14 14 14 14 14 14 15 15 15 16 16 17 18
11 11 11 11 11 11 11 11 12 12 12 11 11 11 12 13 13 14 14 14 14 14 14 14 14 14 15 15 16 16 16 16 16 16 17 18 18 18
12 12 12 12 12 12 12 12 12 12 12 12 12 12 13 13 14 14 14 14 14 14 14 14 15 15 16 17 17 17 17 17 17 17 17 18 18 19
13 13 13 13 13 13 13 13 13 13 13 13 13 13 13 14 14 15 15 15 15 15 15 16 16 16 17 17 18 18 18 18 18 18 19 19 20 20
14 14 14 14 14 14 14 14 14 14 14 14 14 15 15 15 15 15 15 15 16 16 16 17 17 17 18 18 18 19 19 19 19 19 20 20 21 21
15 15 15 15 15 15 15 15 15 15 15 15 16 16 16 16 17 17 17 17 17 17 17 17 18 18 18 18 18 18 19 19 20 21 21 22 22 22
17 17 16 16 16 16 17 17 17 17 17 17 18 18 18 18 17 17 17 18 18 18 18 18 18 18 18 18 19 20 20 21 21 22 22 22 22 22
18 18 18 18 18 17 18 18 18 19 19 19 20 20 19 19 19 19 19 19 19 19 19 19 19 19 19 19 20 21 22 22 22 22 22 22 22 22
18 19 19 19 19 19 19 20 20 20 21 21 21 21 20 20 20 19 20 20 20 21 21 21 20 20 20 20 21 22 22 22 22 22 22 23 23 23
20 20 20 21 21 21 21 21 21 21 22 22 22 21 21 21 20 20 20 20 20 20 20 21 21 22 22 21 22 22 22 23 22 22 22 23 24 24
21 21 21 22 23 23 23 22 22 22 22 22 22 21 21 21 21 21 21 21 21 21 21 21 22 22 22 23 23 23 23 23 23 24 23 24 24 24
21 21 21 22 23 23 23 23 22 22 22 22 23 22 22 21 21 21 21 21 21 21 22 22 22 23 23 23 23 24 24 24 24 24 24 24 24 24
22 22 22 22 23 23 23 22 22 22 21 21 22 21 22 21 21 21 22 21 22 22 22 23 23 24 24 24 24 25 25 25 25 25 25 25 25 25
23 23 23 23 23 22 23 23 22 22 21 21 21 21 21 21 21 21 22 22 22 23 24 24 24 24 24 25 25 26 26 26 26 26 26 26 26 26
24 24 24 24 23 23 23 23 23 22 22 22 21 22 22 22 22 23 23 23 24 24 25 25 25 25 25 26 27 27 27 27 26 26 27 27 28 28
25 25 25 25 24 24 24 24 23 23 23 23 23 23 23 22 23 23 23 24 24 24 24 25 25 26 27 27 27 27 27 27 27 27 28 28 28 29
25 25 24 24 24 24 24 23 23 23 24 24 23 23 23 23 24 24 24 25 25 25 25 25 25 25 26 27 27 27 27 27 28 28 29 29 29 30
25 25 25 24 24 23 23 23 23 23 23 24 24 24 24 24 24 24 24 25 25 25 25 24 25 25 25 25 25 26 27 27 28 28 29 30 30 31
24 24 24 24 24 24 24 23 23 23 23 24 25 25 24 24 24 24 24 24 25 25 24 24 25 25 25 25 25 25 26 26 26 27 28 29 30 31
24 23 24 24 24 24 24 24 24 24 25 25 25 24 24 24 24 25 25 25 25 24 24 24 24 24 24 24 24 25 25 25 26 27 28 29 30 30
24 24 24 25 25 25 25 25 24 25 25 25 24 24 24 25 24 24 24 24 23 23 23 23 23 23 24 25 25 25 25 25 26 27 29 30 30 30
24 24 24 25 25 25 25 25 24 24 24 24 24 23 23 24 23 23 23 23 22 22 22 23 23 24 24 25 25 26 26 26 27 28 30 31 31 31
Wind_Direction
294 296 297 297 299 298 297 294 292 290 289 288 285 279 277 277 279 278 278 281 283 282 283 279 279 282 283 282 283 283 282 284 284 285 285 285 283 282
293 294 296 296 298 297 295 293 293 293 294 293 289 284 278 276 278 279 279 280 281 283 287 284 284 286 285 284 286 285 284 284 285 286 287 285 285 283
292 293 294 296 296 296 295 293 292 292 293 293 292 290 285 279 278 280 281 282 282 283 284 284 284 284 284 287 287 284 283 284 284 286 287 286 284 285
291 291 292 294 295 294 294 294 293 292 292 293 292 292 290 286 283 282 281 280 281 284 284 285 285 284 285 286 286 285 283 283 284 287 288 288 287 288
288 288 289 290 291 291 293 294 293 292 291 290 291 293 293 289 286 284 282 281 282 283 284 285 285 285 284 284 286 286 286 285 285 287 287 288 288 289
285 285 286 286 286 288 290 290 291 291 290 291 291 292 294 291 288 284 282 282 283 283 284 285 286 286 287 288 287 286 285 286 285 286 287 287 287 289
282 282 284 285 284 285 286 288 289 289 290 290 290 289 290 290 288 285 283 281 282 284 284 285 286 287 288 291 290 289 287 286 286 286 287 288 289 289
281 280 281 282 284 285 285 285 287 288 289 290 291 290 290 288 288 287 283 280 281 283 284 285 286 286 287 290 292 291 290 287 286 286 286 287 289 289
281 281 281 280 282 284 284 285 285 286 287 289 290 289 289 287 286 287 284 280 280 280 281 282 283 285 285 287 290 291 291 290 287 285 284 286 287 289
281 281 281 280 280 282 283 283 285 286 286 287 288 286 287 285 284 285 285 282 282 281 280 280 281 282 284 287 289 291 293 292 290 288 287 286 288 290
280 282 282 280 279 280 281 282 283 284 285 285 286 284 284 284 284 285 284 283 283 283 280 280 281 281 283 285 287 289 292 294 293 292 291 291 292 292
280 282 282 281 279 279 281 282 283 282 283 283 284 283 281 281 283 285 285 284 283 282 282 282 283 282 283 285 287 290 293 295 294 294 294 293 293 292
278 281 282 282 281 279 280 280 283 283 282 282 282 280 279 279 280 283 285 285 283 282 283 283 284 285 284 284 285 288 292 294 295 295 295 295 296 295
276 278 281 283 283 280 279 280 283 284 283 282 281 279 279 278 279 281 283 284 284 284 285 285 286 286 286 284 284 285 288 290 292 292 293 295 295 295
274 276 278 280 282 279 278 279 282 284 283 283 282 281 280 278 277 279 282 284 285 284 285 286 287 289 288 286 285 284 285 287 289 290 290 292 294 295
274 276 277 278 277 277 278 279 281 283 282 282 283 283 281 280 280 281 282 284 284 283 283 284 286 287 287 288 287 285 285 287 289 290 291 292 293 295
275 277 277 278 277 277 279 278 279 281 281 282 282 283 282 281 281 281 283 284 286 285 284 285 286 287 287 288 288 287 286 287 288 289 291 292 293 295
275 276 277 277 278 278 278 278 279 280 281 281 281 282 282 280 281 282 285 285 286 286 286 287 288 289 290 289 290 290 288 287 288 289 290 292 293 294
274 275 275 276 277 278 277 276 277 279 280 281 282 283 283 283 283 284 285 287 287 287 288 289 289 290 291 292 294 294 292 290 290 289 289 291 292 294
274 274 275 275 275 276 277 276 276 277 279 280 281 284 282 282 284 284 286 287 288 288 287 287 289 291 292 292 294 295 295 294 293 293 292 293 295 295
272 274 276 275 275 275 276 276 276 276 278 280 281 282 281 282 284 284 286 287 288 286 286 286 288 290 291 292 294 297 297 296 295 296 297 299 299 298
271 273 275 277 277 276 276 276 276 276 277 277 279 281 280 282 283 284 285 286 287 286 286 287 289 291 292 293 296 298 298 298 298 299 299 300 300 300
272 273 274 276 277 277 278 278 278 277 277 277 277 278 280 282 284 285 286 285 285 285 287 288 290 291 292 294 296 299 299 298 298 299 301 303 303 301
Height
5826 5825 5824 5823 5822 5820 5819 5818 5817 5816 5815 5814 5813 5812 5811 5810 5809 5808 5808 5807 5807 5806 5805 5804 5803 5802 5801 5800 5799 5798 5797 5797 5796 5795 5794 5793 5792 5791
5824 5823 5822 5820 5819 5818 5817 5815 5814 5813 5812 5811 5809 5809 5807 5807 5806 5806 5805 5804 5803 5802 5801 5800 5799 5799 5798 5797 5796 5795 5794 5793 5792 5791 5790 5789 5788 5786
5821 5820 5819 5818 5817 5815 5814 5813 5812 5810 5809 5808 5807 5806 5804 5804 5803 5802 5801 5800 5800 5799 5798 5797 5796 5795 5794 5793 5792 5791 5790 5788 5787 5786 5785 5784 5782 5781
5818 5817 5816 5815 5814 5812 5811 5810 5808 5807 5806 5805 5804 5803 5801 5800 5799 5798 5797 5797 5796 5795 5794 5793 5792 5791 5790 5789 5787 5786 5785 5784 5783 5781 5780 5779 5778 5776
5814 5813 5812 5811 5810 5809 5808 5806 5805 5804 5803 5802 5800 5799 5798 5797 5795 5795 5794 5793 5792 5791 5790 5789 5788 5787 5785 5784 5783 5781 5780 5779 5778 5776 5775 5774 5772 5771
5810 5809 5809 5808 5806 5805 5804 5803 5801 5800 5799 5797 5796 5795 5794 5793 5791 5790 5789 5788 5787 5786 5785 5784 5783 5782 5780 5779 5778 5776 5775 5773 5772 5770 5769 5768 5766 5764
5806 5805 5804 5803 5802 5801 5800 5799 5797 5796 5795 5794 5792 5791 5790 5788 5787 5785 5784 5783 5782 5781 5780 5779 5778 5777 5775 5774 5772 5771 5769 5768 5766 5765 5763 5761 5760 5758
5801 5800 5799 5798 5797 5796 5795 5794 5793 5792 5790 5789 5788 5786 5785 5783 5782 5780 5779 5778 5777 5777 5775 5774 5773 5772 5770 5769 5767 5765 5764 5762 5760 5759 5757 5755 5753 5751
5796 5795 5794 5793 5792 5791 5790 5789 5788 5786 5785 5784 5782 5781 5779 5778 5776 5775 5773 5772 5771 5770 5769 5768 5767 5766 5765 5763 5761 5760 5758 5756 5754 5752 5750 5748 5747 5745
5790 5789 5788 5787 5786 5785 5784 5783 5782 5780 5779 5777 5776 5774 5773 5771 5770 5769 5767 5766 5765 5764 5762 5762 5761 5760 5759 5757 5755 5753 5751 5749 5747 5745 5743 5741 5739 5737
5784 5783 5782 5781 5780 5779 5778 5777 5775 5774 5772 5771 5769 5767 5766 5765 5763 5762 5761 5760 5758 5757 5756 5755 5754 5753 5752 5751 5749 5747 5745 5742 5740 5738 5736 5734 5732 5730
5778 5776 5775 5774 5773 5771 5770 5769 5768 5767 5765 5764 5762 5761 5760 5758 5757 5756 5754 5753 5752 5751 5749 5748 5747 5746 5745 5744 5742 5740 5738 5736 5733 5731 5729 5727 5725 5722
5770 5769 5768 5767 5765 5764 5763 5762 5761 5759 5758 5757 5755 5754 5753 5752 5751 5749 5748 5746 5745 5744 5743 5741 5740 5738 5737 5737 5735 5733 5731 5729 5726 5724 5721 5719 5717 5715
5763 5762 5761 5760 5758 5756 5756 5755 5753 5752 5751 5749 5748 5747 5746 5745 5744 5743 5741 5740 5738 5737 5736 5734 5733 5731 5730 5728 5728 5726 5724 5721 5719 5717 5714 5712 5710 5707
5755 5754 5753 5752 5750 5749 5748 5747 5746 5745 5744 5743 5742 5740 5739 5738 5737 5736 5734 5733 5731 5730 5728 5727 5725 5724 5722 5720 5719 5718 5716 5714 5712 5709 5707 5705 5702 5700
5747 5746 5745 5744 5743 5742 5740 5740 5739 5738 5737 5736 5734 5733 5732 5730 5729 5728 5727 5725 5724 5722 5720 5719 5717 5716 5714 5712 5710 5709 5707 5706 5704 5702 5699 5697 5694 5692
5738 5738 5737 5736 5735 5734 5733 5732 5731 5730 5729 5728 5727 5725 5724 5722 5721 5720 5719 5717 5715 5714 5712 5711 5709 5707 5705 5703 5702 5700 5698 5697 5695 5693 5691 5689 5686 5683
5730 5730 5729 5728 5727 5726 5726 5725 5724 5723 5722 5720 5719 5717 5716 5714 5713 5712 5710 5709 5707 5705 5704 5702 5700 5699 5697 5695 5693 5691 5689 5688 5686 5684 5682 5680 5677 5674
5722 5722 5721 5721 5720 5719 5718 5717 5716 5715 5714 5713 5711 5710 5708 5707 5705 5704 5702 5701 5699 5697 5695 5694 5692 5690 5689 5687 5686 5682 5680 5678 5676 5674 5672 5670 5668 5665
5714 5714 5713 5712 5712 5711 5710 5709 5708 5707 5706 5705 5703 5702 5701 5699 5698 5696 5694 5693 5691 5689 5688 5686 5684 5682 5681 5679 5677 5675 5672 5670 5667 5665 5663 5660 5658 5655
5706 5706 5705 5705 5704 5703 5702 5701 5700 5699 5698 5697 5695 5694 5693 5691 5690 5688 5687 5685 5683 5682 5680 5678 5677 5675 5673 5671 5669 5667 5664 5661 5659 5656 5654 5651 5648 5645
5698 5698 5697 5696 5695 5694 5693 5692 5691 5690 5689 5688 5687 5686 5685 5683 5682 5680 5679 5677 5676 5674 5673 5671 5669 5667 5665 5663 5661 5659 5656 5653 5650 5647 5644 5642 5638 5635
5690 5690 5689 5688 5687 5686 5684 5683 5682 5681 5680 5679 5678 5677 5677 5675 5674 5673 5671 5670 5668 5667 5666 5664 5662 5660 5658 5655 5653 5650 5647 5645 5642 5639 5636 5632 5629 5625